This is the latest recevied weather packets stored in our database for station/object KE0PRS. If no packets are shown the sender has not sent any weather packets the latest 10 day(s).
| Time | Temp. | Humidity | Pressure | Rain* | Wind** | Luminosity | Snow |
|---|---|---|---|---|---|---|---|
| 1787450797 | 27.78° C | 61% | 1019.3 hPa | 0 mm | - | 0 W/m² | - |
| 1787450493 | 27.78° C | 60% | 1019.5 hPa | 0 mm | - | 0 W/m² | - |
| 1787450188 | 27.78° C | 59% | 1019.3 hPa | 0 mm | - | 0 W/m² | - |
| 1787449884 | 28.33° C | 59% | 1019.4 hPa | 0 mm | - | 0 W/m² | - |
| 1787449580 | 28.33° C | 58% | 1019.3 hPa | 0 mm | - | 0 W/m² | - |
| 1787449275 | 28.33° C | 57% | 1019.2 hPa | 0 mm | - | 0 W/m² | - |
| 1787448975 | 28.89° C | 57% | 1019.2 hPa | 0 mm | - | 0 W/m² | - |
| 1787448670 | 28.89° C | 56% | 1019 hPa | 0 mm | - | 1 W/m² | - |
| 1787448367 | 28.89° C | 56% | 1019.1 hPa | 0 mm | - | 1 W/m² | - |
| 1787448062 | 29.44° C | 55% | 1019 hPa | 0 mm | - | 2 W/m² | - |
| 1787447761 | 29.44° C | 55% | 1019 hPa | 0 mm | - | 3 W/m² | - |
| 1787447456 | 30° C | 54% | 1019 hPa | 0 mm | - | 4 W/m² | - |
| 1787447152 | 30° C | 53% | 1018.9 hPa | 0 mm | - | 7 W/m² | - |
| 1787446849 | 30.56° C | 52% | 1019 hPa | 0 mm | - | 9 W/m² | - |
| 1787446548 | 30.56° C | 51% | 1018.7 hPa | 0 mm | - | 13 W/m² | - |
| 1787446244 | 31.11° C | 50% | 1018.9 hPa | 0 mm | - | 20 W/m² | - |
| 1787445941 | 31.11° C | 49% | 1018.7 hPa | 0 mm | - | 27 W/m² | - |
| 1787445637 | 31.67° C | 49% | 1018.9 hPa | 0 mm | - | 35 W/m² | - |
| 1787445333 | 31.67° C | 48% | 1018.7 hPa | 0 mm | - | 43 W/m² | - |
| 1787445032 | 31.67° C | 47% | 1018.6 hPa | 0 mm | - | 51 W/m² | - |
| 1787444729 | 31.67° C | 48% | 1018.5 hPa | 0 mm | - | 60 W/m² | - |
| 1787444426 | 32.22° C | 47% | 1018.7 hPa | 0 mm | - | 69 W/m² | - |
| 1787444120 | 32.22° C | 47% | 1018.7 hPa | 0 mm | - | 78 W/m² | - |
| 1787443820 | 32.22° C | 46% | 1018.6 hPa | 0 mm | - | 87 W/m² | - |
| 1787443519 | 32.78° C | 46% | 1018.6 hPa | 0 mm | - | 98 W/m² | - |
* Rain latest hour (hover to see other rain measurements)
** Current wind speed in m/s (hover to see current wind gust speed)